LOPEN (60473 NORAD) Tracking and Keplerian Element Data

This shows tracking and keplerian element data for the satellite.

Feedback or suggestion? Click here.




ElementValue
Catalog60473
NameLOPEN
Epoch Orbit864
Epoch Day286.78201751
Epoch Year2024
RAAN1.4264
Inclination97.4392
Eccentricity0.0001091
Argument of Perigee245.21
Mean Anonmoly114.9021
Mean Motion15.19286869
Decay Rate0.0002074
L11 60473U 24149F 24286.78201751 .00020740 00000+0 98422-3 0 9993
L22 60473 97.4392 1.4264 0001091 245.2100 114.9021 15.19286869 8649



Live tracking and technical data element details for LOPEN (NORAD 60473). LOPEN can be tracked NOW for your location showing map with azimuth and elevation plus other details from your city location.







IsCatalogInMostPopularTable: catalog: 60473, numindb: 5
Update: records affected: 1



GetName: 60473 LOPEN

Hit Count: updated at: Tue, 03 Dec 2024 02:11:26 GMT